Time,TemperatureF,DewpointF,PressureIn,WindDirection,WindDirectionDegrees,WindSpeedMPH,WindSpeedGustMPH,Humidity,HourlyPrecipIn,Conditions,Clouds,dailyrainin,SoftwareType,DateUTC
2013-03-07 00:01:00,24.0,21.0,-100.00,NNE,30,4.0,9.0,91,-99.99,,,-99.99,,2013-03-07 06:01:00,
2013-03-07 00:11:00,24.0,21.0,-100.00,NNW,345,6.0,9.0,91,-99.99,,,-99.99,,2013-03-07 06:11:00,
2013-03-07 00:21:00,24.0,21.0,-100.00,NNE,20,6.0,8.0,91,-99.99,,,-99.99,,2013-03-07 06:21:00,
2013-03-07 00:32:00,24.0,21.0,-100.00,NNE,20,6.0,8.0,91,-99.99,,,-99.99,,2013-03-07 06:32:00,
2013-03-07 00:42:00,24.0,21.0,-100.00,North,0,4.0,7.0,91,-99.99,,,-99.99,,2013-03-07 06:42:00,
2013-03-07 00:52:00,24.0,22.0,-100.00,NW,320,2.0,5.0,91,-99.99,,,-99.99,,2013-03-07 06:52:00,
2013-03-07 01:01:00,24.0,22.0,-100.00,NW,320,2.0,5.0,91,-99.99,,,-99.99,,2013-03-07 07:01:00,
2013-03-07 01:11:00,24.0,21.0,-100.00,South,180,1.0,4.0,91,-99.99,,,-99.99,,2013-03-07 07:11:00,
2013-03-07 01:21:00,24.0,21.0,-100.00,WSW,250,1.0,4.0,91,-99.99,,,-99.99,,2013-03-07 07:21:00,
2013-03-07 01:32:00,24.0,21.0,-100.00,WSW,250,1.0,4.0,91,-99.99,,,-99.99,,2013-03-07 07:32:00,
2013-03-07 01:42:00,24.0,21.0,-100.00,WSW,245,2.0,4.0,91,-99.99,,,-99.99,,2013-03-07 07:42:00,
2013-03-07 01:53:00,24.0,21.0,-100.00,NW,310,1.0,2.0,91,-99.99,,,-99.99,,2013-03-07 07:53:00,
2013-03-07 02:02:00,24.0,21.0,-100.00,NW,310,1.0,2.0,91,-99.99,,,-99.99,,2013-03-07 08:02:00,
2013-03-07 02:12:00,24.0,21.0,-100.00,NE,45,1.0,4.0,91,-99.99,,,-99.99,,2013-03-07 08:12:00,
2013-03-07 02:22:00,24.0,21.0,-100.00,East,95,1.0,5.0,91,-99.99,,,-99.99,,2013-03-07 08:22:00,
2013-03-07 02:33:00,24.0,21.0,-100.00,East,95,1.0,5.0,91,-99.99,,,-99.99,,2013-03-07 08:33:00,
2013-03-07 02:43:00,24.0,22.0,-100.00,North,350,2.0,6.0,91,-99.99,,,-99.99,,2013-03-07 08:43:00,
2013-03-07 02:54:00,24.0,21.0,-100.00,NW,325,5.0,7.0,91,-99.99,,,-99.99,,2013-03-07 08:54:00,
2013-03-07 03:03:00,24.0,21.0,-100.00,NW,325,5.0,7.0,91,-99.99,,,-99.99,,2013-03-07 09:03:00,
2013-03-07 03:13:00,24.0,21.0,-100.00,NW,320,5.0,6.0,91,-99.99,,,-99.99,,2013-03-07 09:13:00,
2013-03-07 03:23:00,24.0,21.0,-100.00,NNW,335,6.0,7.0,91,-99.99,,,-99.99,,2013-03-07 09:23:00,
2013-03-07 03:33:00,24.0,21.0,-100.00,NNW,335,6.0,7.0,91,-99.99,,,-99.99,,2013-03-07 09:33:00,
2013-03-07 03:42:00,24.0,22.0,-100.00,NW,325,5.0,6.0,92,-99.99,,,-99.99,,2013-03-07 09:42:00,
2013-03-07 03:53:00,24.0,22.0,-100.00,NW,310,6.0,6.0,92,-99.99,,,-99.99,,2013-03-07 09:53:00,
2013-03-07 04:03:00,24.0,22.0,-100.00,NW,310,6.0,6.0,92,-99.99,,,-99.99,,2013-03-07 10:03:00,
2013-03-07 04:13:00,23.0,21.0,-100.00,NW,305,4.0,6.0,92,-99.99,,,-99.99,,2013-03-07 10:13:00,
2013-03-07 04:23:00,23.0,21.0,-100.00,WNW,290,7.0,9.0,92,-99.99,,,-99.99,,2013-03-07 10:23:00,
2013-03-07 04:42:00,24.0,22.0,-100.00,WNW,295,6.0,9.0,93,-99.99,,,-99.99,,2013-03-07 10:42:00,
2013-03-07 04:53:00,23.0,22.0,-100.00,NW,305,5.0,6.0,93,-99.99,,,-99.99,,2013-03-07 10:53:00,
2013-03-07 05:03:00,23.0,22.0,-100.00,NW,305,5.0,6.0,93,-99.99,,,-99.99,,2013-03-07 11:03:00,
2013-03-07 05:12:00,23.0,22.0,-100.00,WSW,240,4.0,6.0,93,-99.99,,,-99.99,,2013-03-07 11:12:00,
2013-03-07 05:23:00,24.0,22.0,-100.00,SW,220,4.0,6.0,93,-99.99,,,-99.99,,2013-03-07 11:23:00,
2013-03-07 05:33:00,24.0,22.0,-100.00,SW,220,4.0,6.0,93,-99.99,,,-99.99,,2013-03-07 11:33:00,
2013-03-07 05:43:00,24.0,22.0,-100.00,SW,230,3.0,5.0,93,-99.99,,,-99.99,,2013-03-07 11:43:00,
2013-03-07 05:54:00,24.0,22.0,-100.00,West,265,1.0,4.0,93,-99.99,,,-99.99,,2013-03-07 11:54:00,
2013-03-07 06:03:00,24.0,22.0,-100.00,West,265,1.0,4.0,93,-99.99,,,-99.99,,2013-03-07 12:03:00,
2013-03-07 06:12:00,24.0,22.0,-100.00,WNW,295,0.0,1.0,93,-99.99,,,-99.99,,2013-03-07 12:12:00,
2013-03-07 06:23:00,24.0,22.0,-100.00,WNW,295,2.0,4.0,93,-99.99,,,-99.99,,2013-03-07 12:23:00,
2013-03-07 06:33:00,24.0,22.0,-100.00,WNW,295,2.0,4.0,93,-99.99,,,-99.99,,2013-03-07 12:33:00,
2013-03-07 06:42:00,24.0,22.0,-100.00,WNW,290,3.0,4.0,93,-99.99,,,-99.99,,2013-03-07 12:42:00,
2013-03-07 06:53:00,24.0,22.0,-100.00,NW,315,3.0,5.0,93,-99.99,,,-99.99,,2013-03-07 12:53:00,
2013-03-07 07:02:00,24.0,22.0,-100.00,NW,315,3.0,5.0,93,-99.99,,,-99.99,,2013-03-07 13:02:00,
2013-03-07 07:12:00,24.0,22.0,-100.00,NW,325,3.0,4.0,93,-99.99,,,-99.99,,2013-03-07 13:12:00,
2013-03-07 07:22:00,24.0,22.0,-100.00,NW,325,4.0,6.0,93,-99.99,,,-99.99,,2013-03-07 13:22:00,
2013-03-07 07:32:00,24.0,22.0,-100.00,NW,325,4.0,6.0,93,-99.99,,,-99.99,,2013-03-07 13:32:00,
2013-03-07 07:42:00,24.0,22.0,-100.00,NW,325,4.0,6.0,93,-99.99,,,-99.99,,2013-03-07 13:42:00,
2013-03-07 07:53:00,25.0,23.0,-100.00,NE,45,1.0,2.0,93,-99.99,,,-99.99,,2013-03-07 13:53:00,
2013-03-07 08:02:00,25.0,23.0,-100.00,NE,45,1.0,2.0,93,-99.99,,,-99.99,,2013-03-07 14:02:00,
2013-03-07 08:12:00,25.0,23.0,-100.00,NE,40,0.0,1.0,93,-99.99,,,-99.99,,2013-03-07 14:12:00,
2013-03-07 08:23:00,26.0,24.0,-100.00,East,95,1.0,2.0,93,-99.99,,,-99.99,,2013-03-07 14:23:00,
2013-03-07 08:33:00,26.0,24.0,-100.00,East,95,1.0,2.0,93,-99.99,,,-99.99,,2013-03-07 14:33:00,
2013-03-07 08:42:00,26.0,24.0,-100.00,ESE,105,1.0,4.0,93,-99.99,,,-99.99,,2013-03-07 14:42:00,
2013-03-07 08:54:00,26.0,24.0,-100.00,SE,140,1.0,4.0,92,-99.99,,,-99.99,,2013-03-07 14:54:00,
2013-03-07 09:03:00,26.0,24.0,-100.00,SE,140,1.0,4.0,92,-99.99,,,-99.99,,2013-03-07 15:03:00,
2013-03-07 09:12:00,27.0,25.0,-100.00,ESE,120,3.0,5.0,91,-99.99,,,-99.99,,2013-03-07 15:12:00,
2013-03-07 09:23:00,27.0,25.0,-100.00,SSE,150,4.0,6.0,90,-99.99,,,-99.99,,2013-03-07 15:23:00,
2013-03-07 09:32:00,27.0,25.0,-100.00,SSE,150,4.0,6.0,90,-99.99,,,-99.99,,2013-03-07 15:32:00,
2013-03-07 09:42:00,27.0,24.0,-100.00,SSE,165,9.0,13.0,87,-99.99,,,-99.99,,2013-03-07 15:42:00,
2013-03-07 09:53:00,28.0,24.0,-100.00,South,190,11.0,14.0,85,-99.99,,,-99.99,,2013-03-07 15:53:00,
2013-03-07 10:02:00,28.0,24.0,-100.00,South,190,11.0,14.0,85,-99.99,,,-99.99,,2013-03-07 16:02:00,
2013-03-07 10:12:00,29.0,25.0,-100.00,South,170,5.0,11.0,84,-99.99,,,-99.99,,2013-03-07 16:12:00,
2013-03-07 10:23:00,29.0,24.0,-100.00,South,175,8.0,13.0,82,-99.99,,,-99.99,,2013-03-07 16:23:00,
2013-03-07 10:32:00,29.0,24.0,-100.00,South,175,8.0,13.0,82,-99.99,,,-99.99,,2013-03-07 16:32:00,
2013-03-07 10:43:00,29.0,24.0,-100.00,SSW,205,9.0,11.0,82,-99.99,,,-99.99,,2013-03-07 16:43:00,
2013-03-07 10:53:00,30.0,25.0,-100.00,SSW,200,8.0,11.0,82,-99.99,,,-99.99,,2013-03-07 16:53:00,
2013-03-07 11:02:00,30.0,25.0,-100.00,SSW,200,8.0,11.0,82,-99.99,,,-99.99,,2013-03-07 17:02:00,
2013-03-07 11:12:00,30.0,25.0,-100.00,SSW,200,9.0,11.0,81,-99.99,,,-99.99,,2013-03-07 17:12:00,
2013-03-07 11:22:00,30.0,25.0,-100.00,SSW,210,9.0,15.0,82,-99.99,,,-99.99,,2013-03-07 17:22:00,
2013-03-07 11:33:00,30.0,25.0,-100.00,SSW,210,9.0,15.0,82,-99.99,,,-99.99,,2013-03-07 17:33:00,
2013-03-07 11:43:00,30.0,25.0,-100.00,SSW,210,9.0,14.0,82,-99.99,,,-99.99,,2013-03-07 17:43:00,
2013-03-07 11:54:00,30.0,25.0,-100.00,SSW,210,9.0,14.0,82,-99.99,,,-99.99,,2013-03-07 17:54:00,
2013-03-07 12:03:00,30.0,25.0,-100.00,SSW,210,9.0,14.0,82,-99.99,,,-99.99,,2013-03-07 18:03:00,
2013-03-07 12:12:00,31.0,26.0,-100.00,South,175,6.0,14.0,79,-99.99,,,-99.99,,2013-03-07 18:12:00,
2013-03-07 12:22:00,32.0,26.0,-100.00,SSW,205,8.0,14.0,79,-99.99,,,-99.99,,2013-03-07 18:22:00,
2013-03-07 12:32:00,32.0,26.0,-100.00,SSW,205,8.0,14.0,79,-99.99,,,-99.99,,2013-03-07 18:32:00,
2013-03-07 12:42:00,33.0,26.0,-100.00,SSW,195,5.0,15.0,76,-99.99,,,-99.99,,2013-03-07 18:42:00,
2013-03-07 12:53:00,33.0,26.0,-100.00,SSW,205,8.0,12.0,73,-99.99,,,-99.99,,2013-03-07 18:53:00,
2013-03-07 13:03:00,33.0,26.0,-100.00,SSW,205,8.0,12.0,73,-99.99,,,-99.99,,2013-03-07 19:03:00,
2013-03-07 13:12:00,34.0,26.0,-100.00,SW,215,7.0,13.0,72,-99.99,,,-99.99,,2013-03-07 19:12:00,
2013-03-07 13:23:00,34.0,26.0,-100.00,South,190,6.0,14.0,72,-99.99,,,-99.99,,2013-03-07 19:23:00,
2013-03-07 13:35:00,34.0,26.0,-100.00,South,190,6.0,14.0,72,-99.99,,,-99.99,,2013-03-07 19:35:00,
2013-03-07 13:43:00,34.0,25.0,-100.00,South,170,7.0,12.0,69,-99.99,,,-99.99,,2013-03-07 19:43:00,
2013-03-07 13:53:00,35.0,25.0,-100.00,South,180,9.0,12.0,68,-99.99,,,-99.99,,2013-03-07 19:53:00,
2013-03-07 14:02:00,35.0,25.0,-100.00,South,180,9.0,12.0,68,-99.99,,,-99.99,,2013-03-07 20:02:00,
2013-03-07 14:13:00,37.0,27.0,-100.00,SSE,150,4.0,6.0,67,-99.99,,,-99.99,,2013-03-07 20:13:00,
2013-03-07 14:22:00,36.0,26.0,-100.00,SSW,195,9.0,10.0,66,-99.99,,,-99.99,,2013-03-07 20:22:00,
2013-03-07 14:33:00,36.0,26.0,-100.00,SSW,195,9.0,10.0,66,-99.99,,,-99.99,,2013-03-07 20:33:00,
2013-03-07 14:43:00,37.0,27.0,-100.00,SW,220,5.0,9.0,65,-99.99,,,-99.99,,2013-03-07 20:43:00,
2013-03-07 14:54:00,39.0,27.0,-100.00,SSW,195,3.0,5.0,62,-99.99,,,-99.99,,2013-03-07 20:54:00,
2013-03-07 15:02:00,39.0,27.0,-100.00,SSW,195,3.0,5.0,62,-99.99,,,-99.99,,2013-03-07 21:02:00,
2013-03-07 15:12:00,38.0,26.0,-100.00,SSE,155,4.0,9.0,62,-99.99,,,-99.99,,2013-03-07 21:12:00,
2013-03-07 15:22:00,37.0,25.0,-100.00,SE,125,5.0,7.0,62,-99.99,,,-99.99,,2013-03-07 21:22:00,
2013-03-07 15:32:00,37.0,25.0,-100.00,SE,125,5.0,7.0,62,-99.99,,,-99.99,,2013-03-07 21:32:00,
2013-03-07 15:42:00,37.0,26.0,-100.00,East,90,8.0,10.0,64,-99.99,,,-99.99,,2013-03-07 21:42:00,
2013-03-07 15:53:00,36.0,26.0,-100.00,ESE,105,9.0,11.0,67,-99.99,,,-99.99,,2013-03-07 21:53:00,
2013-03-07 16:02:00,36.0,26.0,-100.00,ESE,105,9.0,11.0,67,-99.99,,,-99.99,,2013-03-07 22:02:00,
2013-03-07 16:12:00,35.0,26.0,-100.00,ESE,115,11.0,14.0,69,-99.99,,,-99.99,,2013-03-07 22:12:00,
2013-03-07 16:22:00,35.0,26.0,-100.00,ESE,115,9.0,11.0,70,-99.99,,,-99.99,,2013-03-07 22:22:00,
2013-03-07 16:32:00,35.0,26.0,-100.00,ESE,115,9.0,11.0,70,-99.99,,,-99.99,,2013-03-07 22:32:00,
2013-03-07 16:42:00,35.0,27.0,-100.00,SE,135,9.0,13.0,71,-99.99,,,-99.99,,2013-03-07 22:42:00,
2013-03-07 17:03:00,35.0,27.0,-100.00,ESE,120,9.0,11.0,72,-99.99,,,-99.99,,2013-03-07 23:03:00,
2013-03-07 17:13:00,34.0,27.0,-100.00,SE,125,6.0,11.0,74,-99.99,,,-99.99,,2013-03-07 23:13:00,
2013-03-07 17:22:00,34.0,27.0,-100.00,SE,130,7.0,10.0,73,-99.99,,,-99.99,,2013-03-07 23:22:00,
2013-03-07 17:33:00,34.0,27.0,-100.00,SE,130,7.0,10.0,73,-99.99,,,-99.99,,2013-03-07 23:33:00,
2013-03-07 17:43:00,33.0,26.0,-100.00,SE,125,9.0,11.0,75,-99.99,,,-99.99,,2013-03-07 23:43:00,
2013-03-07 17:54:00,33.0,26.0,-100.00,SE,125,9.0,11.0,78,-99.99,,,-99.99,,2013-03-07 23:54:00,
2013-03-07 18:04:00,33.0,26.0,-100.00,SE,125,9.0,11.0,78,-99.99,,,-99.99,,2013-03-08 00:04:00,
2013-03-07 18:13:00,32.0,27.0,-100.00,SE,125,10.0,11.0,81,-99.99,,,-99.99,,2013-03-08 00:13:00,
2013-03-07 18:23:00,31.0,26.0,-100.00,ESE,120,9.0,10.0,82,-99.99,,,-99.99,,2013-03-08 00:23:00,
2013-03-07 18:34:00,31.0,26.0,-100.00,ESE,120,9.0,10.0,82,-99.99,,,-99.99,,2013-03-08 00:34:00,
2013-03-07 18:43:00,30.0,26.0,-100.00,ESE,110,9.0,11.0,83,-99.99,,,-99.99,,2013-03-08 00:43:00,
2013-03-07 18:54:00,29.0,25.0,-100.00,ESE,115,9.0,11.0,85,-99.99,,,-99.99,,2013-03-08 00:54:00,
2013-03-07 19:02:00,29.0,25.0,-100.00,ESE,115,9.0,11.0,85,-99.99,,,-99.99,,2013-03-08 01:02:00,
2013-03-07 19:11:00,29.0,26.0,-100.00,SE,135,6.0,9.0,87,-99.99,,,-99.99,,2013-03-08 01:11:00,
2013-03-07 19:21:00,28.0,25.0,-100.00,ESE,120,8.0,9.0,87,-99.99,,,-99.99,,2013-03-08 01:21:00,
2013-03-07 19:33:00,28.0,25.0,-100.00,ESE,120,8.0,9.0,87,-99.99,,,-99.99,,2013-03-08 01:33:00,
2013-03-07 19:42:00,27.0,24.0,-100.00,ESE,120,9.0,10.0,89,-99.99,,,-99.99,,2013-03-08 01:42:00,
2013-03-07 19:52:00,27.0,25.0,-100.00,ESE,120,9.0,11.0,91,-99.99,,,-99.99,,2013-03-08 01:52:00,
2013-03-07 20:01:00,27.0,25.0,-100.00,ESE,120,9.0,11.0,91,-99.99,,,-99.99,,2013-03-08 02:01:00,
2013-03-07 20:11:00,26.0,23.0,-100.00,ESE,110,10.0,11.0,91,-99.99,,,-99.99,,2013-03-08 02:11:00,
2013-03-07 20:22:00,25.0,23.0,-100.00,ESE,105,9.0,9.0,92,-99.99,,,-99.99,,2013-03-08 02:22:00,
2013-03-07 20:32:00,25.0,23.0,-100.00,ESE,105,9.0,9.0,92,-99.99,,,-99.99,,2013-03-08 02:32:00,
2013-03-07 20:42:00,25.0,24.0,-100.00,ESE,110,8.0,9.0,93,-99.99,,,-99.99,,2013-03-08 02:42:00,
2013-03-07 20:53:00,26.0,24.0,-100.00,SE,125,7.0,8.0,93,-99.99,,,-99.99,,2013-03-08 02:53:00,
2013-03-07 21:02:00,26.0,24.0,-100.00,SE,125,7.0,8.0,93,-99.99,,,-99.99,,2013-03-08 03:02:00,
2013-03-07 21:12:00,26.0,24.0,-100.00,SE,125,9.0,10.0,94,-99.99,,,-99.99,,2013-03-08 03:12:00,
2013-03-07 21:22:00,24.0,23.0,-100.00,ESE,120,9.0,9.0,94,-99.99,,,-99.99,,2013-03-08 03:22:00,
2013-03-07 21:32:00,24.0,23.0,-100.00,ESE,120,9.0,9.0,94,-99.99,,,-99.99,,2013-03-08 03:32:00,
2013-03-07 21:42:00,22.0,21.0,-100.00,ESE,110,11.0,13.0,94,-99.99,,,-99.99,,2013-03-08 03:42:00,
2013-03-07 21:53:00,23.0,21.0,-100.00,ESE,110,12.0,14.0,95,-99.99,,,-99.99,,2013-03-08 03:53:00,
2013-03-07 22:01:00,23.0,21.0,-100.00,ESE,110,12.0,14.0,95,-99.99,,,-99.99,,2013-03-08 04:01:00,
2013-03-07 22:11:00,23.0,22.0,-100.00,SE,125,10.0,13.0,95,-99.99,,,-99.99,,2013-03-08 04:11:00,
2013-03-07 22:22:00,25.0,24.0,-100.00,SE,145,6.0,9.0,96,-99.99,,,-99.99,,2013-03-08 04:22:00,
2013-03-07 22:32:00,25.0,24.0,-100.00,SE,145,6.0,9.0,96,-99.99,,,-99.99,,2013-03-08 04:32:00,
2013-03-07 22:42:00,25.0,24.0,-100.00,SE,135,6.0,9.0,96,-99.99,,,-99.99,,2013-03-08 04:42:00,
2013-03-07 22:52:00,24.0,23.0,-100.00,ESE,120,7.0,9.0,96,-99.99,,,-99.99,,2013-03-08 04:52:00,
2013-03-07 23:02:00,24.0,23.0,-100.00,ESE,120,7.0,9.0,96,-99.99,,,-99.99,,2013-03-08 05:02:00,
2013-03-07 23:12:00,22.0,21.0,-100.00,ESE,110,11.0,11.0,96,-99.99,,,-99.99,,2013-03-08 05:12:00,
2013-03-07 23:22:00,21.0,20.0,-100.00,ESE,120,12.0,14.0,96,-99.99,,,-99.99,,2013-03-08 05:22:00,
2013-03-07 23:32:00,21.0,20.0,-100.00,ESE,120,12.0,14.0,96,-99.99,,,-99.99,,2013-03-08 05:32:00,
2013-03-07 23:42:00,22.0,21.0,-100.00,ESE,115,14.0,14.0,96,-99.99,,,-99.99,,2013-03-08 05:42:00,
2013-03-07 23:52:00,22.0,21.0,-100.00,ESE,110,12.0,14.0,96,-99.99,,,-99.99,,2013-03-08 05:52:00,